Weather Roundup
Issued by NWS Chicago, IL

Home | Current Version | Previous Version | Text Only | Print | Product List | Glossary On
Versions: 1 2 3 4 5 6 7 8 9 10 11 12 13 14 15 16 17 18 19 20 21 22 23 24 25 26 27 28 29 30 31 32 33 34 35 36 37 38 39 40 41 42 43 44 45 46 47 48 49 50
000
NZUS59 KLOT 281410
HRRLOT

CHICAGO AREA WEATHER ROUNDUP
NATIONAL WEATHER SERVICE CHICAGO/ROMEOVILLE IL
800 AM CST FRI NOV 28 2014

NOTE: "FAIR" INDICATES FEW OR NO CLOUDS BELOW 12,000 FEET WITH NO
SIGNIFICANT WEATHER AND/OR OBSTRUCTIONS TO VISIBILITY.

* THESE STATIONS ARE NOT UNDER NWS QUALITY CONTROL. THEY ALSO MAY NOT
  REPORT WEATHER SUCH AS PRECIPITATION OR FOG.

ILZ005-006-012>014-019>023-281500-
NORTHEAST ILLINOIS

CITY           SKY/WX    TMP DP  RH WIND       PRES   REMARKS
OHARE          FLURRIES  20  14  77 S13       30.26F WCI   7
MIDWAY         FLURRIES  22  14  71 S9        30.28F WCI  12
AURORA         MOCLDY    20  12  71 S12       30.26F WCI   8
LANSING*       CLOUDY    22  16  78 S8        30.30S WCI  12
JOLIET*        CLOUDY    20  15  80 S6        30.29F WCI  12
WAUKEGAN       LGT SNOW  18  15  88 S6        30.25F VSB 1   WCI  10
DUPAGE AIRPORT CLOUDY    20  14  77 S10       30.25F WCI   9
WHEELING       LGT SNOW  20  14  77 S10       30.28F WCI   9
KANKAKEE*      CLOUDY   N/A N/A N/A S10       30.30F
MORRIS*        MOCLDY    20  17  86 S12       30.27F WCI   8
LEWIS AIRPORT* CLOUDY    20  15  81 S12       30.27F WCI   8
NORTHERLY IS     N/A     22  14  71 S13         N/A  WCI  10
$$

WIZ051-052-058>065-066-070>072-281500-
SOUTHEAST WISCONSIN

CITY           SKY/WX    TMP DP  RH WIND       PRES   REMARKS
MILWAUKEE      LGT SNOW  18  12  77 S8        30.23F WCI   8
KENOSHA*       LGT SNOW  19  15  84 S7        30.24F FOG     WCI  10
RACINE*        LGT SNOW  19  13  77 S9        30.26F WCI   8
BURLINGTON     LGT SNOW  17  14  90 S6        30.21F WCI   8
WAUKESHA       LGT SNOW  16  12  86 SE8       30.22F WCI   5
WEST BEND      LGT SNOW  16  12  86 SE5       30.20F WCI   9
$$

INZ001>003-010>013-019-020-281500-
NORTHWEST INDIANA

CITY           SKY/WX    TMP DP  RH WIND       PRES   REMARKS
GARY*          CLOUDY    23  14  68 SW6       30.31S WCI  16
MICHIGAN CITY* NOT AVBL
RENSSELAER*    NOT AVBL
VALPARAISO     CLOUDY    20  15  81 S8        30.30F WCI  10
$$

LMZ740>746-281500-
SOUTHERN LAKE MICHIGAN

STATION/POSITION TIME  SKY/WX   TEMP WIND        PRES    VSBY
                                AIR  DIR/SP/G
                 (UTC)          (F)  (DEG/KT/KT) (MB)    (MI)
HARRISON CRIB    1400            21  180/ 16/ 19   N/A
BURNHAM HARBOR   1400            22  190/  8/ 11   N/A
CALUMET HARBOR   1400            21  170/  8/ 11 1024.5S
BURNS HARBOR     NOT AVBL
MICHIGAN CITY    1400            21  150/ 11/ 13   N/A
$$

ABBREVIATIONS USED IN REMARKS
   TC - TEMPERATURE IN CELSIUS
  WCI - WIND CHILL INDEX
   HX - HEAT INDEX
  VSB - VISIBILITY
$$


USA.gov is the U.S. government's official web portal to all federal, state and local government web resources and services.